STARLINK-35943

Last updated on Fri Dec 19 2025 00:02:08 GMT+0000 (Coordinated Universal Time)

1 66927U 25286C 25352.58336806 -.01270689 00000+0 -67084-2 0 9990 2 66927 53.1564 21.0668 0001067 63.7388 45.6025 15.82649653 2933
UTC large
Height (km)
Speed (km/s)
/
Latitude / Longitude
Inclination (degrees)
Orbital Period (minutes)
Azimuth
Elevation
Range (km)
Doppler Factor

Next 0 passes for location: London (51.5072 / 0.1276)

Sorry there are no passes over London.